{"data":{"norad_id":68394,"intl_designator":"2026-063Q","name":"STARLINK-37157","alt_names":[],"object_type":"PAYLOAD","status":"ACTIVE","operator":null,"country":"US","launch_date":"2026-03-26","launch_site_code":"AFWTR","launch_vehicle":null,"mission":null,"orbit_class":"UNKNOWN","rcs_meters":null,"size_class":null,"mass_kg":null,"dimensions":null,"purposes":["comms"],"wikipedia_slug":null,"has_3d_model":false,"image_url":null,"decayed_at":null,"tle_current":{"epoch":"2026-05-25T03:01:59.497248Z","epoch_age_seconds":68103,"freshness":"FRESH","line1":"1 68394U 26063Q   26145.12638307  .00022586  00000+0  69977-3 0  9998","line2":"2 68394  97.2854 287.7577 0000972  96.1570 263.9783 15.33448997  9613","mean_motion":15.33448997,"eccentricity":9.72e-5,"inclination_deg":97.2854,"raan_deg":287.7577,"arg_perigee_deg":96.157,"mean_anomaly_deg":263.9783,"bstar":0.00069977,"rev_number":961,"period_min":93.90595988632,"perigee_km":464.86607768706,"apogee_km":466.19648680112,"semimajor_km":6843.6682822441,"source":"CELESTRAK","updated_at":"2026-05-25T13:38:21.931317Z"}}}